This is the latest recevied weather packets stored in our database for station/object MB7UUE. If no packets are shown the sender has not sent any weather packets the latest 10 day(s).
| Time | Temp. | Humidity | Pressure | Rain* | Wind** | Luminosity | Snow |
|---|---|---|---|---|---|---|---|
| 1777722609 | 20° C | 47% | 1015.9 hPa | 0 mm | - | - | - |
| 1777721704 | 19.44° C | 49% | 1016 hPa | 0 mm | - | - | - |
| 1777721469 | 19.44° C | 49% | 1016 hPa | 0 mm | - | - | - |
| 1777720564 | 18.89° C | 51% | 1016.4 hPa | 0 mm | - | - | - |
| 1777720330 | 18.89° C | 51% | 1016.4 hPa | 0 mm | - | - | - |
| 1777719424 | 18.89° C | 51% | 1016.6 hPa | 0 mm | - | - | - |
| 1777719190 | 18.89° C | 51% | 1016.6 hPa | 0 mm | - | - | - |
| 1777718284 | 18.33° C | 57% | 1016.8 hPa | 0 mm | - | - | - |
| 1777718050 | 18.33° C | 57% | 1016.8 hPa | 0 mm | - | - | - |
| 1777717143 | 17.78° C | 60% | 1016.9 hPa | 0 mm | - | - | - |
| 1777716910 | 17.78° C | 60% | 1016.9 hPa | 0 mm | - | - | - |
| 1777716003 | 17.78° C | 60% | 1016.9 hPa | 0 mm | - | - | - |
| 1777715770 | 17.78° C | 60% | 1017 hPa | 0 mm | - | - | - |
| 1777714864 | 17.22° C | 59% | 1017.2 hPa | 0 mm | - | - | - |
| 1777714629 | 17.22° C | 60% | 1017.2 hPa | 0 mm | - | - | - |
| 1777713723 | 17.22° C | 68% | 1017.3 hPa | 0 mm | - | - | - |
| 1777713489 | 16.67° C | 68% | 1017.3 hPa | 0 mm | - | - | - |
| 1777712583 | 16.11° C | 68% | 1017.6 hPa | 0 mm | - | - | - |
| 1777712351 | 15.56° C | 68% | 1017.6 hPa | 0 mm | - | - | - |
| 1777711444 | 15.56° C | 70% | 1017.8 hPa | 0 mm | - | - | - |
| 1777711210 | 15.56° C | 71% | 1017.9 hPa | 0 mm | - | - | - |
| 1777710303 | 15° C | 72% | 1017.8 hPa | 0 mm | - | - | - |
| 1777710070 | 14.44° C | 72% | 1017.8 hPa | 0 mm | - | - | - |
| 1777709164 | 13.89° C | 74% | 1017.9 hPa | 0 mm | - | - | - |
| 1777708930 | 13.89° C | 74% | 1017.9 hPa | 0 mm | - | - | - |
* Rain latest hour (hover to see other rain measurements)
** Current wind speed in m/s (hover to see current wind gust speed)